Location: Byhalia Creek
(34.8270°N, 89.8040°W)
Time: 20:03:46
(UTC+00:00)

USA 267 - Pass Details

Date: 22 April 2026
Orbit: 1101 x 1107 km, 123.0° (Epoch: 10 January)

Event Time Altitude Azimuth Distance (km) Brightness Sun altitude
Rises 08:33:38 0° 38° (NE) 3,931 7.3 -30.2°
Reaches altitude 10° 08:36:11 10° 33° (NNE) 2,970 6.4 -29.8°
Maximum altitude 08:42:27 50° 321° (NW) 1,375 3.7 -28.9°
Enters shadow 08:43:24 47° 295° (WNW) 1,430 3.6 -28.7°
